Time,TemperatureF,DewpointF,PressureIn,WindDirection,WindDirectionDegrees,WindSpeedMPH,WindSpeedGustMPH,Humidity,HourlyPrecipIn,Conditions,Clouds,dailyrainin,SoftwareType,DateUTC
2013-06-10 00:02:00,75.6,60.6,29.97,WSW,249,0.0,0.0,60,0.00,,,0.00,meteohub,2013-06-10 05:02:00,
2013-06-10 00:07:00,75.4,61.5,29.97,WSW,249,0.0,2.0,62,0.00,,,0.00,meteohub,2013-06-10 05:07:00,
2013-06-10 00:12:00,74.8,61.0,29.97,WSW,249,0.0,2.0,62,0.00,,,0.00,meteohub,2013-06-10 05:12:00,
2013-06-10 00:17:00,74.7,61.2,29.97,WSW,249,0.0,2.0,63,0.00,,,0.00,meteohub,2013-06-10 05:17:00,
2013-06-10 00:22:00,74.8,61.0,29.97,WSW,249,0.0,2.0,62,0.00,,,0.00,meteohub,2013-06-10 05:22:00,
2013-06-10 00:27:00,74.8,59.0,29.97,WSW,249,0.0,0.0,58,0.00,,,0.00,meteohub,2013-06-10 05:27:00,
2013-06-10 00:32:00,75.0,59.2,29.97,WSW,249,1.0,0.0,58,0.00,,,0.00,meteohub,2013-06-10 05:32:00,
2013-06-10 00:38:00,75.0,59.7,29.97,NNE,29,1.0,2.0,59,0.00,,,0.00,meteohub,2013-06-10 05:38:00,
2013-06-10 00:42:00,75.0,59.7,29.97,NNE,32,1.0,2.0,59,0.00,,,0.00,meteohub,2013-06-10 05:42:00,
2013-06-10 00:47:00,75.0,60.3,29.97,NNE,32,0.0,2.0,60,0.00,,,0.00,meteohub,2013-06-10 05:47:00,
2013-06-10 00:53:00,74.7,59.9,29.97,NNE,32,0.0,1.0,60,0.00,,,0.00,meteohub,2013-06-10 05:53:00,
2013-06-10 00:58:00,74.5,59.2,29.97,NNE,32,0.0,1.0,59,0.00,,,0.00,meteohub,2013-06-10 05:58:00,
2013-06-10 01:03:00,74.1,60.3,29.97,NNE,32,1.0,0.0,62,0.00,,,0.00,meteohub,2013-06-10 06:03:00,
2013-06-10 01:08:00,73.6,60.6,29.97,NNE,30,1.0,1.0,64,0.00,,,0.00,meteohub,2013-06-10 06:08:00,
2013-06-10 01:13:00,73.0,61.9,29.97,NNE,29,0.0,1.0,68,0.00,,,0.00,meteohub,2013-06-10 06:13:00,
2013-06-10 01:18:00,72.7,62.2,29.97,NNE,29,0.0,1.0,70,0.00,,,0.00,meteohub,2013-06-10 06:18:00,
2013-06-10 01:23:00,72.3,62.1,29.97,NNE,29,0.0,1.0,70,0.00,,,0.00,meteohub,2013-06-10 06:23:00,
2013-06-10 01:28:00,72.0,62.1,29.97,NNE,29,0.0,1.0,71,0.00,,,0.00,meteohub,2013-06-10 06:28:00,
2013-06-10 01:33:00,71.8,62.6,29.97,NNE,29,0.0,0.0,73,0.00,,,0.00,meteohub,2013-06-10 06:33:00,
2013-06-10 01:38:00,71.4,63.1,29.97,NNE,29,0.0,0.0,75,0.00,,,0.00,meteohub,2013-06-10 06:38:00,
2013-06-10 01:43:00,71.2,63.3,29.97,NNE,30,0.0,0.0,76,0.00,,,0.00,meteohub,2013-06-10 06:43:00,
2013-06-10 01:48:00,70.9,63.0,29.97,NNE,29,0.0,0.0,76,0.00,,,0.00,meteohub,2013-06-10 06:48:00,
2013-06-10 01:53:00,70.7,62.8,29.96,NNE,29,0.0,0.0,76,0.00,,,0.00,meteohub,2013-06-10 06:53:00,
2013-06-10 01:58:00,70.5,63.0,29.96,NNE,29,0.0,0.0,77,0.00,,,0.00,meteohub,2013-06-10 06:58:00,
2013-06-10 02:03:00,70.3,62.8,29.96,NNE,29,0.0,0.0,77,0.00,,,0.00,meteohub,2013-06-10 07:03:00,
2013-06-10 02:08:00,70.7,62.8,29.96,NNE,29,0.0,0.0,76,0.00,,,0.00,meteohub,2013-06-10 07:08:00,
2013-06-10 02:13:00,70.7,62.1,29.97,NNE,30,0.0,0.0,74,0.00,,,0.00,meteohub,2013-06-10 07:13:00,
2013-06-10 02:18:00,70.7,62.1,29.97,NNE,29,0.0,0.0,74,0.00,,,0.00,meteohub,2013-06-10 07:18:00,
2013-06-10 02:23:00,70.9,62.6,29.96,NNE,29,0.0,0.0,75,0.00,,,0.00,meteohub,2013-06-10 07:23:00,
2013-06-10 02:28:00,70.5,62.6,29.96,NNE,29,0.0,0.0,76,0.00,,,0.00,meteohub,2013-06-10 07:28:00,
2013-06-10 02:33:00,70.3,62.4,29.97,NNE,30,0.0,0.0,76,0.00,,,0.00,meteohub,2013-06-10 07:33:00,
2013-06-10 02:38:00,70.0,62.4,29.96,NNE,29,0.0,0.0,77,0.00,,,0.00,meteohub,2013-06-10 07:38:00,
2013-06-10 02:43:00,70.0,62.8,29.96,NNE,29,0.0,0.0,78,0.00,,,0.00,meteohub,2013-06-10 07:43:00,
2013-06-10 02:48:00,70.0,62.4,29.96,ESE,117,0.0,0.0,77,0.00,,,0.00,meteohub,2013-06-10 07:48:00,
2013-06-10 02:53:00,69.6,62.4,29.96,ESE,118,0.0,0.0,78,0.00,,,0.00,meteohub,2013-06-10 07:53:00,
2013-06-10 02:58:00,69.4,62.2,29.96,ESE,118,0.0,0.0,78,0.00,,,0.00,meteohub,2013-06-10 07:58:00,
2013-06-10 03:03:00,69.4,62.2,29.97,ESE,119,0.0,0.0,78,0.00,,,0.00,meteohub,2013-06-10 08:03:00,
2013-06-10 03:08:00,69.6,62.4,29.97,ESE,118,0.0,0.0,78,0.00,,,0.00,meteohub,2013-06-10 08:08:00,
2013-06-10 03:13:00,69.6,62.4,29.97,ESE,118,0.0,0.0,78,0.00,,,0.00,meteohub,2013-06-10 08:13:00,
2013-06-10 03:18:00,69.6,62.4,29.97,ESE,118,0.0,0.0,78,0.00,,,0.00,meteohub,2013-06-10 08:18:00,
2013-06-10 03:23:00,69.4,62.2,29.96,ESE,118,0.0,0.0,78,0.00,,,0.00,meteohub,2013-06-10 08:23:00,
2013-06-10 03:28:00,69.4,62.6,29.97,SSE,155,0.0,0.0,79,0.00,,,0.00,meteohub,2013-06-10 08:28:00,
2013-06-10 03:33:00,69.4,62.6,29.97,SE,131,0.0,0.0,79,0.00,,,0.00,meteohub,2013-06-10 08:33:00,
2013-06-10 03:38:00,69.3,62.4,29.97,ESE,110,0.0,0.0,79,0.00,,,0.00,meteohub,2013-06-10 08:38:00,
2013-06-10 03:43:00,69.3,62.4,29.97,East,91,0.0,0.0,79,0.00,,,0.00,meteohub,2013-06-10 08:43:00,
2013-06-10 03:48:00,69.4,62.6,29.97,East,98,0.0,0.0,79,0.00,,,0.00,meteohub,2013-06-10 08:48:00,
2013-06-10 03:53:00,69.4,62.2,29.97,East,85,0.0,0.0,78,0.00,,,0.00,meteohub,2013-06-10 08:53:00,
2013-06-10 03:58:00,69.6,62.1,29.97,East,86,0.0,0.0,77,0.00,,,0.00,meteohub,2013-06-10 08:58:00,
2013-06-10 04:03:00,69.6,62.1,29.97,East,92,0.0,0.0,77,0.00,,,0.00,meteohub,2013-06-10 09:03:00,
2013-06-10 04:08:00,69.6,61.7,29.97,ENE,71,3.0,0.0,76,0.00,,,0.00,meteohub,2013-06-10 09:08:00,
2013-06-10 04:13:00,70.0,62.4,29.97,ENE,78,3.0,3.0,77,0.00,,,0.00,meteohub,2013-06-10 09:13:00,
2013-06-10 04:18:00,70.0,62.1,29.97,ENE,71,3.0,4.0,76,0.00,,,0.00,meteohub,2013-06-10 09:18:00,
2013-06-10 04:24:00,70.0,61.3,29.96,ENE,72,4.0,4.0,74,0.00,,,0.00,meteohub,2013-06-10 09:24:00,
2013-06-10 04:29:00,70.3,60.8,29.96,ENE,63,5.0,5.0,72,0.00,,,0.00,meteohub,2013-06-10 09:29:00,
2013-06-10 04:34:00,70.5,60.6,29.96,ENE,75,4.0,6.0,71,0.00,,,0.00,meteohub,2013-06-10 09:34:00,
2013-06-10 04:39:00,70.5,60.6,29.96,ENE,63,3.0,6.0,71,0.00,,,0.00,meteohub,2013-06-10 09:39:00,
2013-06-10 04:44:00,70.5,60.6,29.96,ESE,103,1.0,6.0,71,0.00,,,0.00,meteohub,2013-06-10 09:44:00,
2013-06-10 04:49:00,70.5,60.3,29.96,ENE,77,5.0,6.0,70,0.00,,,0.00,meteohub,2013-06-10 09:49:00,
2013-06-10 04:54:00,70.3,60.4,29.96,East,101,2.0,5.0,71,0.00,,,0.00,meteohub,2013-06-10 09:54:00,
2013-06-10 04:59:00,70.2,60.3,29.96,East,89,2.0,5.0,71,0.00,,,0.00,meteohub,2013-06-10 09:59:00,
2013-06-10 05:04:00,70.2,59.9,29.96,ENE,78,3.0,5.0,70,0.00,,,0.00,meteohub,2013-06-10 10:04:00,
2013-06-10 05:09:00,70.2,59.9,29.96,East,89,5.0,5.0,70,0.00,,,0.00,meteohub,2013-06-10 10:09:00,
2013-06-10 05:14:00,70.2,59.9,29.96,East,81,3.0,5.0,70,0.00,,,0.00,meteohub,2013-06-10 10:14:00,
2013-06-10 05:19:00,70.0,59.7,29.96,East,79,5.0,6.0,70,0.00,,,0.00,meteohub,2013-06-10 10:19:00,
2013-06-10 05:24:00,69.6,59.4,29.96,ENE,78,4.0,6.0,70,0.00,,,0.00,meteohub,2013-06-10 10:24:00,
2013-06-10 05:29:00,69.6,59.4,29.96,ENE,70,4.0,6.0,70,0.00,,,0.00,meteohub,2013-06-10 10:29:00,
2013-06-10 05:34:00,69.6,59.4,29.96,ENE,63,5.0,6.0,70,0.00,,,0.00,meteohub,2013-06-10 10:34:00,
2013-06-10 05:39:00,69.6,59.0,29.96,East,81,6.0,6.0,69,0.00,,,0.00,meteohub,2013-06-10 10:39:00,
2013-06-10 05:44:00,69.6,59.0,29.96,East,86,4.0,7.0,69,0.00,,,0.00,meteohub,2013-06-10 10:44:00,
2013-06-10 05:49:00,69.6,59.0,29.96,East,85,2.0,7.0,69,0.00,,,0.00,meteohub,2013-06-10 10:49:00,
2013-06-10 05:54:00,69.6,59.0,29.96,ESE,110,4.0,7.0,69,0.00,,,0.00,meteohub,2013-06-10 10:54:00,
2013-06-10 05:59:00,69.6,59.0,29.96,East,89,4.0,6.0,69,0.00,,,0.00,meteohub,2013-06-10 10:59:00,
2013-06-10 06:04:00,69.4,58.8,29.96,East,85,4.0,6.0,69,0.00,,,0.00,meteohub,2013-06-10 11:04:00,
2013-06-10 06:09:00,69.3,58.6,29.96,East,92,4.0,5.0,69,0.00,,,0.00,meteohub,2013-06-10 11:09:00,
2013-06-10 06:14:00,69.1,58.5,29.97,East,99,3.0,5.0,69,0.00,,,0.00,meteohub,2013-06-10 11:14:00,
2013-06-10 06:19:00,68.9,58.6,29.97,East,97,3.0,5.0,70,0.00,,,0.00,meteohub,2013-06-10 11:19:00,
2013-06-10 06:24:00,69.1,58.8,29.97,ESE,115,2.0,5.0,70,0.00,,,0.00,meteohub,2013-06-10 11:24:00,
2013-06-10 06:29:00,69.1,58.8,29.97,East,86,1.0,5.0,70,0.00,,,0.00,meteohub,2013-06-10 11:29:00,
2013-06-10 06:34:00,69.4,58.5,29.97,East,96,3.0,4.0,68,0.00,,,0.00,meteohub,2013-06-10 11:34:00,
2013-06-10 06:39:00,69.6,58.6,29.97,East,86,5.0,5.0,68,0.00,,,0.00,meteohub,2013-06-10 11:39:00,
2013-06-10 06:44:00,70.0,58.5,29.97,East,98,5.0,6.0,67,0.00,,,0.00,meteohub,2013-06-10 11:44:00,
2013-06-10 06:49:00,70.2,58.6,29.97,East,101,4.0,6.0,67,0.00,,,0.00,meteohub,2013-06-10 11:49:00,
2013-06-10 06:54:00,70.3,58.8,29.97,ESE,103,3.0,6.0,67,0.00,,,0.00,meteohub,2013-06-10 11:54:00,
2013-06-10 06:59:00,70.5,58.6,29.97,East,89,4.0,6.0,66,0.00,,,0.00,meteohub,2013-06-10 11:59:00,
2013-06-10 07:04:00,70.9,59.0,29.97,ESE,108,1.0,6.0,66,0.00,,,0.00,meteohub,2013-06-10 12:04:00,
2013-06-10 07:09:00,71.2,59.4,29.97,East,92,2.0,5.0,66,0.00,,,0.00,meteohub,2013-06-10 12:09:00,
2013-06-10 07:14:00,71.4,59.5,29.97,East,95,2.0,5.0,66,0.00,,,0.00,meteohub,2013-06-10 12:14:00,
2013-06-10 07:19:00,72.0,59.9,29.97,ESE,110,1.0,5.0,66,0.00,,,0.00,meteohub,2013-06-10 12:19:00,
2013-06-10 07:24:00,72.1,59.7,29.97,ESE,118,3.0,4.0,65,0.00,,,0.00,meteohub,2013-06-10 12:24:00,
2013-06-10 07:29:00,72.5,60.1,29.97,SSE,163,3.0,6.0,65,0.00,,,0.00,meteohub,2013-06-10 12:29:00,
2013-06-10 07:34:00,72.7,60.3,29.97,ESE,120,3.0,6.0,65,0.00,,,0.00,meteohub,2013-06-10 12:34:00,
2013-06-10 07:39:00,73.0,60.6,29.97,SSE,166,2.0,6.0,65,0.00,,,0.00,meteohub,2013-06-10 12:39:00,
2013-06-10 07:44:00,73.4,61.0,29.97,SE,136,1.0,6.0,65,0.00,,,0.00,meteohub,2013-06-10 12:44:00,
2013-06-10 07:49:00,74.1,61.2,29.96,SE,127,2.0,6.0,64,0.00,,,0.00,meteohub,2013-06-10 12:49:00,
2013-06-10 07:54:00,74.1,61.2,29.96,South,169,6.0,6.0,64,0.00,,,0.00,meteohub,2013-06-10 12:54:00,
2013-06-10 07:59:00,74.1,61.2,29.96,SE,139,1.0,6.0,64,0.00,,,0.00,meteohub,2013-06-10 12:59:00,
2013-06-10 08:05:00,74.8,61.9,29.97,WSW,239,3.0,6.0,64,0.00,,,0.00,meteohub,2013-06-10 13:05:00,
2013-06-10 08:10:00,75.4,62.4,29.96,WSW,239,2.0,6.0,64,0.00,,,0.00,meteohub,2013-06-10 13:10:00,
2013-06-10 08:15:00,75.4,62.4,29.97,SSE,153,6.0,7.0,64,0.00,,,0.00,meteohub,2013-06-10 13:15:00,
2013-06-10 08:20:00,75.4,62.8,29.97,SSW,195,4.0,7.0,65,0.00,,,0.00,meteohub,2013-06-10 13:20:00,
2013-06-10 08:25:00,75.6,63.0,29.97,SE,146,4.0,7.0,65,0.00,,,0.00,meteohub,2013-06-10 13:25:00,
2013-06-10 08:30:00,75.6,63.3,29.97,SSE,167,4.0,7.0,66,0.00,,,0.00,meteohub,2013-06-10 13:30:00,
2013-06-10 08:35:00,75.4,63.7,29.97,SE,146,3.0,7.0,67,0.00,,,0.00,meteohub,2013-06-10 13:35:00,
2013-06-10 08:40:00,75.6,64.2,29.97,SSW,203,4.0,8.0,68,0.00,,,0.00,meteohub,2013-06-10 13:40:00,
2013-06-10 08:45:00,75.7,64.4,29.97,SW,233,2.0,8.0,68,0.00,,,0.00,meteohub,2013-06-10 13:45:00,
2013-06-10 08:50:00,76.5,64.8,29.97,SW,236,5.0,7.0,67,0.00,,,0.00,meteohub,2013-06-10 13:50:00,
2013-06-10 08:55:00,76.6,64.9,29.97,SW,221,3.0,7.0,67,0.00,,,0.00,meteohub,2013-06-10 13:55:00,
2013-06-10 09:00:00,77.2,64.6,29.97,SW,232,4.0,7.0,65,0.00,,,0.00,meteohub,2013-06-10 14:00:00,
2013-06-10 09:05:00,77.2,64.9,29.97,SW,222,3.0,7.0,66,0.00,,,0.00,meteohub,2013-06-10 14:05:00,
2013-06-10 09:10:00,77.4,64.8,29.97,SSE,155,3.0,10.0,65,0.00,,,0.00,meteohub,2013-06-10 14:10:00,
2013-06-10 09:15:00,77.5,64.4,29.97,SW,215,3.0,10.0,64,0.00,,,0.00,meteohub,2013-06-10 14:15:00,
2013-06-10 09:20:00,77.5,64.4,29.97,SSW,207,3.0,10.0,64,0.00,,,0.00,meteohub,2013-06-10 14:20:00,
2013-06-10 09:25:00,77.7,64.0,29.97,SSE,163,6.0,10.0,63,0.00,,,0.00,meteohub,2013-06-10 14:25:00,
2013-06-10 09:30:00,77.9,64.2,29.97,SE,146,7.0,10.0,63,0.00,,,0.00,meteohub,2013-06-10 14:30:00,
2013-06-10 09:35:00,77.9,64.2,29.97,SSE,158,4.0,11.0,63,0.00,,,0.00,meteohub,2013-06-10 14:35:00,
2013-06-10 09:40:00,78.1,64.4,29.97,South,191,3.0,11.0,63,0.00,,,0.00,meteohub,2013-06-10 14:40:00,
2013-06-10 09:45:00,78.4,64.8,29.97,SW,226,2.0,11.0,63,0.00,,,0.00,meteohub,2013-06-10 14:45:00,
2013-06-10 09:50:00,79.0,64.8,29.97,SW,233,5.0,9.0,62,0.00,,,0.00,meteohub,2013-06-10 14:50:00,
2013-06-10 09:55:00,79.5,65.3,29.96,WSW,240,5.0,9.0,62,0.00,,,0.00,meteohub,2013-06-10 14:55:00,
2013-06-10 10:00:00,79.7,65.1,29.96,SE,143,4.0,9.0,61,0.00,,,0.00,meteohub,2013-06-10 15:00:00,
2013-06-10 10:05:00,80.1,65.8,29.96,SSE,162,1.0,9.0,62,0.00,,,0.00,meteohub,2013-06-10 15:05:00,
2013-06-10 10:10:00,80.4,65.7,29.96,SSE,148,7.0,8.0,61,0.00,,,0.00,meteohub,2013-06-10 15:10:00,
2013-06-10 10:15:00,80.6,65.8,29.95,SSW,195,1.0,8.0,61,0.00,,,0.00,meteohub,2013-06-10 15:15:00,
2013-06-10 10:20:00,81.5,66.2,29.96,SSE,167,8.0,10.0,60,0.00,,,0.00,meteohub,2013-06-10 15:20:00,
2013-06-10 10:25:00,81.7,66.0,29.95,SE,141,6.0,10.0,59,0.00,,,0.00,meteohub,2013-06-10 15:25:00,
2013-06-10 10:30:00,81.9,66.6,29.95,South,178,2.0,10.0,60,0.00,,,0.00,meteohub,2013-06-10 15:30:00,
2013-06-10 10:35:00,82.2,66.0,29.95,SSE,158,8.0,8.0,58,0.00,,,0.00,meteohub,2013-06-10 15:35:00,
2013-06-10 10:40:00,82.6,65.3,29.95,SW,229,3.0,9.0,56,0.00,,,0.00,meteohub,2013-06-10 15:40:00,
2013-06-10 10:45:00,83.7,65.3,29.94,South,184,2.0,9.0,54,0.00,,,0.00,meteohub,2013-06-10 15:45:00,
2013-06-10 10:50:00,84.6,65.5,29.94,SW,225,7.0,9.0,53,0.00,,,0.00,meteohub,2013-06-10 15:50:00,
2013-06-10 10:55:00,84.6,64.4,29.94,WSW,239,6.0,7.0,51,0.00,,,0.00,meteohub,2013-06-10 15:55:00,
2013-06-10 11:00:00,84.9,65.3,29.94,SSW,208,5.0,11.0,52,0.00,,,0.00,meteohub,2013-06-10 16:00:00,
2013-06-10 11:05:00,85.1,64.9,29.94,South,191,8.0,14.0,51,0.00,,,0.00,meteohub,2013-06-10 16:05:00,
2013-06-10 11:10:00,85.5,65.3,29.94,South,185,5.0,14.0,51,0.00,,,0.00,meteohub,2013-06-10 16:10:00,
2013-06-10 11:15:00,85.6,64.9,29.94,SSE,155,5.0,14.0,50,0.00,,,0.00,meteohub,2013-06-10 16:15:00,
2013-06-10 11:20:00,86.0,65.1,29.94,SW,226,4.0,14.0,50,0.00,,,0.00,meteohub,2013-06-10 16:20:00,
2013-06-10 11:25:00,86.5,64.6,29.94,SW,226,12.0,14.0,48,0.00,,,0.00,meteohub,2013-06-10 16:25:00,
2013-06-10 11:30:00,86.4,64.4,29.94,SSW,210,6.0,15.0,48,0.00,,,0.00,meteohub,2013-06-10 16:30:00,
2013-06-10 11:35:00,86.9,64.8,29.94,SSW,208,8.0,15.0,48,0.00,,,0.00,meteohub,2013-06-10 16:35:00,
2013-06-10 11:40:00,86.7,64.0,29.94,SW,218,6.0,15.0,47,0.00,,,0.00,meteohub,2013-06-10 16:40:00,
2013-06-10 11:45:00,86.7,64.0,29.94,SW,236,11.0,16.0,47,0.00,,,0.00,meteohub,2013-06-10 16:45:00,
2013-06-10 11:50:00,86.7,64.8,29.94,SW,219,10.0,17.0,48,0.00,,,0.00,meteohub,2013-06-10 16:50:00,
2013-06-10 11:55:00,86.7,65.3,29.94,SW,226,10.0,18.0,49,0.00,,,0.00,meteohub,2013-06-10 16:55:00,
2013-06-10 12:00:00,87.4,65.3,29.94,West,269,13.0,18.0,48,0.00,,,0.00,meteohub,2013-06-10 17:00:00,
2013-06-10 12:05:00,87.4,64.0,29.94,SW,226,14.0,18.0,46,0.00,,,0.00,meteohub,2013-06-10 17:05:00,
2013-06-10 12:10:00,87.4,64.0,29.94,SW,218,8.0,16.0,46,0.00,,,0.00,meteohub,2013-06-10 17:10:00,
2013-06-10 12:15:00,87.6,64.2,29.93,SSW,200,12.0,16.0,46,0.00,,,0.00,meteohub,2013-06-10 17:15:00,
2013-06-10 12:20:00,87.8,64.4,29.94,SW,215,3.0,22.0,46,0.00,,,0.00,meteohub,2013-06-10 17:20:00,
2013-06-10 12:25:00,88.2,64.8,29.94,WSW,239,12.0,22.0,46,0.00,,,0.00,meteohub,2013-06-10 17:25:00,
2013-06-10 12:30:00,88.5,65.1,29.93,SW,236,12.0,22.0,46,0.00,,,0.00,meteohub,2013-06-10 17:30:00,
2013-06-10 12:35:00,88.5,65.1,29.93,SW,222,15.0,19.0,46,0.00,,,0.00,meteohub,2013-06-10 17:35:00,
2013-06-10 12:40:00,88.7,65.3,29.93,SSW,204,9.0,16.0,46,0.00,,,0.00,meteohub,2013-06-10 17:40:00,
2013-06-10 12:45:00,88.7,65.3,29.93,SW,228,13.0,16.0,46,0.00,,,0.00,meteohub,2013-06-10 17:45:00,
2013-06-10 12:50:00,89.1,65.7,29.93,WSW,253,11.0,19.0,46,0.00,,,0.00,meteohub,2013-06-10 17:50:00,
2013-06-10 12:53:00,89.1,65.7,29.93,SW,225,12.0,19.0,46,0.00,,,0.00,meteohub,2013-06-10 17:53:00,
2013-06-10 12:57:00,89.2,65.1,29.93,SW,224,12.0,19.0,45,0.00,,,0.00,meteohub,2013-06-10 17:57:00,
2013-06-10 13:02:00,89.6,65.5,29.93,SW,232,6.0,18.0,45,0.00,,,0.00,meteohub,2013-06-10 18:02:00,
2013-06-10 13:07:00,89.4,65.3,29.93,SW,231,15.0,16.0,45,0.00,,,0.00,meteohub,2013-06-10 18:07:00,
2013-06-10 13:12:00,89.1,64.9,29.92,SSW,200,7.0,17.0,45,0.00,,,0.00,meteohub,2013-06-10 18:12:00,
2013-06-10 13:17:00,90.0,66.4,29.92,WSW,239,13.0,17.0,46,0.00,,,0.00,meteohub,2013-06-10 18:17:00,
2013-06-10 13:22:00,89.8,65.7,29.92,SE,145,6.0,17.0,45,0.00,,,0.00,meteohub,2013-06-10 18:22:00,
2013-06-10 13:27:00,89.8,66.2,29.92,South,174,6.0,16.0,46,0.00,,,0.00,meteohub,2013-06-10 18:27:00,
2013-06-10 13:32:00,90.1,65.8,29.92,WSW,249,15.0,16.0,45,0.00,,,0.00,meteohub,2013-06-10 18:32:00,
2013-06-10 13:37:00,90.7,66.4,29.91,SW,221,5.0,16.0,45,0.00,,,0.00,meteohub,2013-06-10 18:37:00,
2013-06-10 13:42:00,90.7,65.8,29.91,SW,218,4.0,17.0,44,0.00,,,0.00,meteohub,2013-06-10 18:42:00,
2013-06-10 13:47:00,90.7,65.8,29.91,SW,225,11.0,17.0,44,0.00,,,0.00,meteohub,2013-06-10 18:47:00,
2013-06-10 13:52:00,90.9,66.6,29.91,SE,139,6.0,18.0,45,0.00,,,0.00,meteohub,2013-06-10 18:52:00,
2013-06-10 13:57:00,91.2,66.9,29.91,SW,226,7.0,18.0,45,0.00,,,0.00,meteohub,2013-06-10 18:57:00,
2013-06-10 14:02:00,91.2,66.2,29.90,South,183,8.0,18.0,44,0.00,,,0.00,meteohub,2013-06-10 19:02:00,
2013-06-10 14:07:00,91.9,66.2,29.90,South,178,7.0,17.0,43,0.00,,,0.00,meteohub,2013-06-10 19:07:00,
2013-06-10 14:12:00,91.8,65.5,29.90,SW,228,13.0,19.0,42,0.00,,,0.00,meteohub,2013-06-10 19:12:00,
2013-06-10 14:17:00,91.6,65.8,29.90,SSW,205,3.0,19.0,43,0.00,,,0.00,meteohub,2013-06-10 19:17:00,
2013-06-10 14:22:00,92.1,66.4,29.89,SW,226,9.0,19.0,43,0.00,,,0.00,meteohub,2013-06-10 19:22:00,
2013-06-10 14:27:00,92.5,66.7,29.90,SW,223,15.0,18.0,43,0.00,,,0.00,meteohub,2013-06-10 19:27:00,
2013-06-10 14:32:00,92.5,65.3,29.90,SW,219,15.0,16.0,41,0.00,,,0.00,meteohub,2013-06-10 19:32:00,
2013-06-10 14:38:00,92.1,65.7,29.89,SSW,209,11.0,20.0,42,0.00,,,0.00,meteohub,2013-06-10 19:38:00,
2013-06-10 14:43:00,92.8,67.1,29.89,SSE,152,8.0,20.0,43,0.00,,,0.00,meteohub,2013-06-10 19:43:00,
2013-06-10 14:48:00,93.6,67.1,29.89,WSW,242,10.0,20.0,42,0.00,,,0.00,meteohub,2013-06-10 19:48:00,
2013-06-10 14:53:00,93.7,67.1,29.89,SSW,198,7.0,15.0,42,0.00,,,0.00,meteohub,2013-06-10 19:53:00,
2013-06-10 14:58:00,93.7,66.6,29.89,SW,224,11.0,14.0,41,0.00,,,0.00,meteohub,2013-06-10 19:58:00,
2013-06-10 15:03:00,93.6,67.6,29.89,SE,142,5.0,15.0,43,0.00,,,0.00,meteohub,2013-06-10 20:03:00,
2013-06-10 15:08:00,93.9,67.3,29.89,SSW,205,8.0,19.0,42,0.00,,,0.00,meteohub,2013-06-10 20:08:00,
2013-06-10 15:13:00,93.9,66.6,29.89,SW,224,8.0,19.0,41,0.00,,,0.00,meteohub,2013-06-10 20:13:00,
2013-06-10 15:18:00,94.3,67.6,29.89,SW,235,8.0,19.0,42,0.00,,,0.00,meteohub,2013-06-10 20:18:00,
2013-06-10 15:23:00,94.5,67.1,29.89,SW,236,11.0,17.0,41,0.00,,,0.00,meteohub,2013-06-10 20:23:00,
2013-06-10 15:28:00,94.8,67.5,29.89,SW,229,11.0,16.0,41,0.00,,,0.00,meteohub,2013-06-10 20:28:00,
2013-06-10 15:33:00,95.0,66.9,29.88,SE,133,5.0,15.0,40,0.00,,,0.00,meteohub,2013-06-10 20:33:00,
2013-06-10 15:38:00,95.2,67.1,29.89,SE,143,6.0,14.0,40,0.00,,,0.00,meteohub,2013-06-10 20:38:00,
2013-06-10 15:43:00,95.5,66.6,29.89,SSE,155,7.0,14.0,39,0.00,,,0.00,meteohub,2013-06-10 20:43:00,
2013-06-10 15:48:00,95.4,66.6,29.88,SE,134,6.0,14.0,39,0.00,,,0.00,meteohub,2013-06-10 20:48:00,
2013-06-10 15:53:00,95.7,66.0,29.88,SSE,162,6.0,15.0,38,0.00,,,0.00,meteohub,2013-06-10 20:53:00,
2013-06-10 15:58:00,96.1,66.4,29.88,WSW,249,6.0,15.0,38,0.00,,,0.00,meteohub,2013-06-10 20:58:00,
2013-06-10 16:03:00,96.1,66.4,29.88,SSW,204,5.0,15.0,38,0.00,,,0.00,meteohub,2013-06-10 21:03:00,
2013-06-10 16:08:00,96.1,65.7,29.88,SSE,157,8.0,16.0,37,0.00,,,0.00,meteohub,2013-06-10 21:08:00,
2013-06-10 16:13:00,96.6,66.9,29.88,WSW,239,12.0,16.0,38,0.00,,,0.00,meteohub,2013-06-10 21:13:00,
2013-06-10 16:18:00,96.6,65.3,29.88,SSE,165,8.0,16.0,36,0.00,,,0.00,meteohub,2013-06-10 21:18:00,
2013-06-10 16:23:00,96.4,65.1,29.87,SSE,163,12.0,16.0,36,0.00,,,0.00,meteohub,2013-06-10 21:23:00,
2013-06-10 16:28:00,96.8,65.5,29.87,SSE,164,9.0,16.0,36,0.00,,,0.00,meteohub,2013-06-10 21:28:00,
2013-06-10 16:33:00,96.8,66.2,29.87,SW,217,4.0,16.0,37,0.00,,,0.00,meteohub,2013-06-10 21:33:00,
2013-06-10 16:38:00,97.3,65.8,29.87,West,268,2.0,14.0,36,0.00,,,0.00,meteohub,2013-06-10 21:38:00,
2013-06-10 16:43:00,97.2,64.9,29.87,SW,235,15.0,20.0,35,0.00,,,0.00,meteohub,2013-06-10 21:43:00,
2013-06-10 16:48:00,97.2,64.9,29.86,SW,222,5.0,20.0,35,0.00,,,0.00,meteohub,2013-06-10 21:48:00,
2013-06-10 16:53:00,97.3,65.1,29.86,SE,126,7.0,20.0,35,0.00,,,0.00,meteohub,2013-06-10 21:53:00,
2013-06-10 16:58:00,97.5,65.3,29.86,SSW,212,8.0,18.0,35,0.00,,,0.00,meteohub,2013-06-10 21:58:00,
2013-06-10 17:03:00,97.7,65.5,29.86,SSE,160,7.0,14.0,35,0.00,,,0.00,meteohub,2013-06-10 22:03:00,
2013-06-10 17:08:00,97.9,65.7,29.86,South,169,15.0,15.0,35,0.00,,,0.00,meteohub,2013-06-10 22:08:00,
2013-06-10 17:13:00,97.9,64.8,29.86,South,179,7.0,16.0,34,0.00,,,0.00,meteohub,2013-06-10 22:13:00,
2013-06-10 17:18:00,98.1,65.7,29.86,SSW,204,12.0,16.0,35,0.00,,,0.00,meteohub,2013-06-10 22:18:00,
2013-06-10 17:23:00,98.2,65.8,29.86,SE,139,8.0,16.0,35,0.00,,,0.00,meteohub,2013-06-10 22:23:00,
2013-06-10 17:28:00,98.2,65.1,29.85,SSE,160,4.0,13.0,34,0.00,,,0.00,meteohub,2013-06-10 22:28:00,
2013-06-10 17:33:00,98.2,64.2,29.85,SSW,212,13.0,15.0,33,0.00,,,0.00,meteohub,2013-06-10 22:33:00,
2013-06-10 17:38:00,98.2,65.1,29.85,South,173,4.0,15.0,34,0.00,,,0.00,meteohub,2013-06-10 22:38:00,
2013-06-10 17:43:00,98.6,65.3,29.85,SSE,150,9.0,15.0,34,0.00,,,0.00,meteohub,2013-06-10 22:43:00,
2013-06-10 17:48:00,98.6,65.3,29.86,SE,142,5.0,14.0,34,0.00,,,0.00,meteohub,2013-06-10 22:48:00,
2013-06-10 17:53:00,98.6,65.3,29.86,South,179,3.0,13.0,34,0.00,,,0.00,meteohub,2013-06-10 22:53:00,
2013-06-10 17:58:00,98.4,64.4,29.85,SE,138,10.0,13.0,33,0.00,,,0.00,meteohub,2013-06-10 22:58:00,
2013-06-10 18:03:00,98.6,64.6,29.85,SSE,161,5.0,15.0,33,0.00,,,0.00,meteohub,2013-06-10 23:03:00,
2013-06-10 18:08:00,98.4,64.4,29.85,WSW,250,8.0,15.0,33,0.00,,,0.00,meteohub,2013-06-10 23:08:00,
2013-06-10 18:13:00,98.4,65.1,29.84,SW,218,7.0,15.0,34,0.00,,,0.00,meteohub,2013-06-10 23:13:00,
2013-06-10 18:18:00,98.2,64.2,29.85,SW,224,8.0,13.0,33,0.00,,,0.00,meteohub,2013-06-10 23:18:00,
2013-06-10 18:23:00,98.4,65.1,29.85,SW,224,3.0,13.0,34,0.00,,,0.00,meteohub,2013-06-10 23:23:00,
2013-06-10 18:28:00,98.2,65.1,29.85,WSW,245,4.0,11.0,34,0.00,,,0.00,meteohub,2013-06-10 23:28:00,
2013-06-10 18:33:00,98.2,65.1,29.85,SE,146,4.0,13.0,34,0.00,,,0.00,meteohub,2013-06-10 23:33:00,
2013-06-10 18:38:00,98.2,65.8,29.84,South,184,6.0,15.0,35,0.00,,,0.00,meteohub,2013-06-10 23:38:00,
2013-06-10 18:43:00,98.2,65.1,29.84,SSE,167,3.0,15.0,34,0.00,,,0.00,meteohub,2013-06-10 23:43:00,
2013-06-10 18:48:00,98.1,64.0,29.84,SSW,212,10.0,11.0,33,0.00,,,0.00,meteohub,2013-06-10 23:48:00,
2013-06-10 18:53:00,98.1,64.9,29.84,South,169,5.0,12.0,34,0.00,,,0.00,meteohub,2013-06-10 23:53:00,
2013-06-10 18:58:00,98.1,64.9,29.84,South,169,2.0,12.0,34,0.00,,,0.00,meteohub,2013-06-10 23:58:00,
2013-06-10 19:04:00,97.7,64.6,29.84,SSW,200,5.0,12.0,34,0.00,,,0.00,meteohub,2013-06-11 00:04:00,
2013-06-10 19:09:00,97.5,64.4,29.84,SSW,205,9.0,11.0,34,0.00,,,0.00,meteohub,2013-06-11 00:09:00,
2013-06-10 19:14:00,97.3,64.2,29.84,SW,221,6.0,11.0,34,0.00,,,0.00,meteohub,2013-06-11 00:14:00,
2013-06-10 19:19:00,97.2,64.9,29.84,WSW,246,5.0,12.0,35,0.00,,,0.00,meteohub,2013-06-11 00:19:00,
2013-06-10 19:24:00,97.0,65.7,29.84,South,179,7.0,12.0,36,0.00,,,0.00,meteohub,2013-06-11 00:24:00,
2013-06-10 19:29:00,96.8,65.5,29.84,SW,231,5.0,12.0,36,0.00,,,0.00,meteohub,2013-06-11 00:29:00,
2013-06-10 19:34:00,96.4,65.1,29.84,SSE,166,9.0,11.0,36,0.00,,,0.00,meteohub,2013-06-11 00:34:00,
2013-06-10 19:39:00,96.1,64.8,29.84,SSW,198,8.0,13.0,36,0.00,,,0.00,meteohub,2013-06-11 00:39:00,
2013-06-10 19:44:00,95.7,65.3,29.84,WSW,242,5.0,13.0,37,0.00,,,0.00,meteohub,2013-06-11 00:44:00,
2013-06-10 19:49:00,95.5,65.1,29.84,SSW,194,6.0,13.0,37,0.00,,,0.00,meteohub,2013-06-11 00:49:00,
2013-06-10 19:54:00,95.4,64.9,29.84,SSE,153,7.0,12.0,37,0.00,,,0.00,meteohub,2013-06-11 00:54:00,
2013-06-10 19:59:00,95.0,65.5,29.84,SSW,205,7.0,12.0,38,0.00,,,0.00,meteohub,2013-06-11 00:59:00,
2013-06-10 20:04:00,94.5,66.4,29.85,South,186,8.0,13.0,40,0.00,,,0.00,meteohub,2013-06-11 01:04:00,
2013-06-10 20:09:00,93.7,67.1,29.85,SE,134,13.0,15.0,42,0.00,,,0.00,meteohub,2013-06-11 01:09:00,
2013-06-10 20:14:00,92.8,67.6,29.85,SE,139,7.0,16.0,44,0.00,,,0.00,meteohub,2013-06-11 01:14:00,
2013-06-10 20:19:00,92.3,67.8,29.85,SSE,153,9.0,16.0,45,0.00,,,0.00,meteohub,2013-06-11 01:19:00,
2013-06-10 20:24:00,91.6,67.8,29.85,South,190,11.0,16.0,46,0.00,,,0.00,meteohub,2013-06-11 01:24:00,
2013-06-10 20:29:00,90.9,68.5,29.85,South,186,12.0,16.0,48,0.00,,,0.00,meteohub,2013-06-11 01:29:00,
2013-06-10 20:34:00,90.1,68.4,29.84,SSE,155,11.0,17.0,49,0.00,,,0.00,meteohub,2013-06-11 01:34:00,
2013-06-10 20:39:00,89.6,68.5,29.84,ESE,109,10.0,18.0,50,0.00,,,0.00,meteohub,2013-06-11 01:39:00,
2013-06-10 20:44:00,89.1,68.5,29.85,SSE,153,7.0,18.0,51,0.00,,,0.00,meteohub,2013-06-11 01:44:00,
2013-06-10 20:49:00,88.5,68.0,29.85,SSE,153,5.0,18.0,51,0.00,,,0.00,meteohub,2013-06-11 01:49:00,
2013-06-10 20:54:00,88.3,68.0,29.85,SSE,166,6.0,18.0,51,0.00,,,0.00,meteohub,2013-06-11 01:54:00,
2013-06-10 20:59:00,88.0,68.2,29.85,ESE,118,10.0,18.0,52,0.00,,,0.00,meteohub,2013-06-11 01:59:00,
2013-06-10 21:04:00,87.6,67.8,29.85,South,189,6.0,18.0,52,0.00,,,0.00,meteohub,2013-06-11 02:04:00,
2013-06-10 21:09:00,87.3,67.5,29.85,South,176,4.0,17.0,52,0.00,,,0.00,meteohub,2013-06-11 02:09:00,
2013-06-10 21:14:00,87.1,67.8,29.86,SE,146,2.0,17.0,53,0.00,,,0.00,meteohub,2013-06-11 02:14:00,
2013-06-10 21:19:00,86.7,67.5,29.85,South,190,6.0,17.0,53,0.00,,,0.00,meteohub,2013-06-11 02:19:00,
2013-06-10 21:24:00,86.5,67.5,29.85,South,170,11.0,17.0,53,0.00,,,0.00,meteohub,2013-06-11 02:24:00,
2013-06-10 21:29:00,86.4,67.3,29.86,ESE,119,15.0,18.0,53,0.00,,,0.00,meteohub,2013-06-11 02:29:00,
2013-06-10 21:34:00,86.0,66.9,29.86,ESE,116,10.0,18.0,53,0.00,,,0.00,meteohub,2013-06-11 02:34:00,
2013-06-10 21:39:00,85.8,66.7,29.86,SSE,166,10.0,17.0,53,0.00,,,0.00,meteohub,2013-06-11 02:39:00,
2013-06-10 21:44:00,85.6,66.6,29.86,SSE,158,10.0,17.0,53,0.00,,,0.00,meteohub,2013-06-11 02:44:00,
2013-06-10 21:49:00,85.3,66.7,29.86,South,174,11.0,18.0,54,0.00,,,0.00,meteohub,2013-06-11 02:49:00,
2013-06-10 21:54:00,85.1,66.6,29.86,South,181,4.0,18.0,54,0.00,,,0.00,meteohub,2013-06-11 02:54:00,
2013-06-10 21:59:00,84.7,66.2,29.86,SSW,204,5.0,17.0,54,0.00,,,0.00,meteohub,2013-06-11 02:59:00,
2013-06-10 22:04:00,84.6,66.0,29.86,SSE,160,12.0,17.0,54,0.00,,,0.00,meteohub,2013-06-11 03:04:00,
2013-06-10 22:09:00,84.4,66.4,29.87,SE,129,11.0,18.0,55,0.00,,,0.00,meteohub,2013-06-11 03:09:00,
2013-06-10 22:14:00,84.0,66.2,29.87,ESE,115,13.0,18.0,55,0.00,,,0.00,meteohub,2013-06-11 03:14:00,
2013-06-10 22:20:00,83.8,66.4,29.87,SE,129,4.0,18.0,56,0.00,,,0.00,meteohub,2013-06-11 03:20:00,
2013-06-10 22:25:00,83.5,66.2,29.87,SSE,166,7.0,18.0,56,0.00,,,0.00,meteohub,2013-06-11 03:25:00,
2013-06-10 22:30:00,83.3,66.0,29.88,South,176,15.0,18.0,56,0.00,,,0.00,meteohub,2013-06-11 03:30:00,
2013-06-10 22:35:00,82.9,65.7,29.88,SSE,159,9.0,16.0,56,0.00,,,0.00,meteohub,2013-06-11 03:35:00,
2013-06-10 22:40:00,82.8,65.5,29.88,SSW,212,6.0,17.0,56,0.00,,,0.00,meteohub,2013-06-11 03:40:00,
2013-06-10 22:45:00,82.6,65.3,29.88,SSW,210,7.0,17.0,56,0.00,,,0.00,meteohub,2013-06-11 03:45:00,
2013-06-10 22:50:00,82.4,65.7,29.88,SSW,195,8.0,17.0,57,0.00,,,0.00,meteohub,2013-06-11 03:50:00,
2013-06-10 22:55:00,82.2,66.0,29.88,ESE,121,9.0,16.0,58,0.00,,,0.00,meteohub,2013-06-11 03:55:00,
2013-06-10 23:00:00,82.0,65.8,29.88,SSE,148,12.0,16.0,58,0.00,,,0.00,meteohub,2013-06-11 04:00:00,
2013-06-10 23:01:00,82.0,65.8,29.88,South,187,4.0,18.0,58,0.00,,,0.00,meteohub,2013-06-11 04:01:00,
2013-06-10 23:02:00,82.0,65.8,29.88,SSE,168,13.0,18.0,58,0.00,,,0.00,meteohub,2013-06-11 04:02:00,
2013-06-10 23:03:00,81.9,65.7,29.88,South,180,8.0,18.0,58,0.00,,,0.00,meteohub,2013-06-11 04:03:00,
2013-06-10 23:08:00,81.9,65.7,29.87,South,191,7.0,18.0,58,0.00,,,0.00,meteohub,2013-06-11 04:08:00,
2013-06-10 23:13:00,81.7,65.5,29.87,South,188,10.0,20.0,58,0.00,,,0.00,meteohub,2013-06-11 04:13:00,
2013-06-10 23:18:00,81.5,65.3,29.87,SSE,149,7.0,20.0,58,0.00,,,0.00,meteohub,2013-06-11 04:18:00,
2013-06-10 23:23:00,81.3,65.1,29.87,South,182,9.0,22.0,58,0.00,,,0.00,meteohub,2013-06-11 04:23:00,
2013-06-10 23:28:00,81.3,65.1,29.88,SSW,195,6.0,22.0,58,0.00,,,0.00,meteohub,2013-06-11 04:28:00,
2013-06-10 23:33:00,81.3,65.1,29.88,SE,135,5.0,22.0,58,0.00,,,0.00,meteohub,2013-06-11 04:33:00,
2013-06-10 23:38:00,81.3,65.7,29.88,SSE,158,7.0,17.0,59,0.00,,,0.00,meteohub,2013-06-11 04:38:00,
2013-06-10 23:43:00,81.1,65.5,29.88,SSE,156,8.0,17.0,59,0.00,,,0.00,meteohub,2013-06-11 04:43:00,
2013-06-10 23:48:00,81.1,65.5,29.88,SSE,156,7.0,19.0,59,0.00,,,0.00,meteohub,2013-06-11 04:48:00,
2013-06-10 23:53:00,81.0,65.8,29.88,SSE,149,6.0,19.0,60,0.00,,,0.00,meteohub,2013-06-11 04:53:00,
2013-06-10 23:58:00,80.8,65.7,29.88,SE,145,5.0,20.0,60,0.00,,,0.00,meteohub,2013-06-11 04:58:00,